Location: Wavehorne
(51.0500°N, 0.8333°E)
Time: 18:02:05
(UTC+00:00)

USA 229 - Pass Details

Date: 20 June 2021
Orbit: 956 x 1256 km, 63.5° (Epoch: 20 July)

Event Time Altitude Azimuth Distance (km) Brightness Sun altitude
Exits shadow 00:22:33 22° 190° (S) 2,011 4.5 -15.3°
Maximum altitude 00:26:34 53° 123° (ESE) 1,247 3.9 -15.3°
Drops below altitude 10° 00:33:11 10° 49° (NE) 2,923 6.7 -15.1°
Sets 00:35:59 0° 45° (NE) 3,930 7.6 -15.1°
